This is the latest recevied weather packets stored in our database for station/object N3WPH. If no packets are shown the sender has not sent any weather packets the latest 10 day(s).
| Time | Temp. | Humidity | Pressure | Rain* | Wind** | Luminosity | Snow |
|---|---|---|---|---|---|---|---|
| 1778071209 | 16.67° C | 82% | 1008.1 hPa | 0 mm | - | 36 W/m² | - |
| 1778070907 | 16.67° C | 81% | 1007.8 hPa | 0 mm | - | 34 W/m² | - |
| 1778070604 | 16.67° C | 79% | 1007.7 hPa | 0 mm | - | 31 W/m² | - |
| 1778070301 | 17.22° C | 78% | 1007.6 hPa | 0 mm | - | 35 W/m² | - |
| 1778069999 | 17.22° C | 77% | 1007.6 hPa | 0 mm | - | 33 W/m² | - |
| 1778069696 | 17.22° C | 76% | 1007.7 hPa | 0 mm | - | 59 W/m² | - |
| 1778069392 | 17.78° C | 74% | 1007.8 hPa | 0 mm | - | 46 W/m² | - |
| 1778069090 | 17.78° C | 73% | 1007.8 hPa | 0 mm | - | 23 W/m² | - |
| 1778068787 | 17.78° C | 72% | 1007.8 hPa | 0 mm | - | 30 W/m² | - |
| 1778068485 | 17.78° C | 72% | 1007.8 hPa | 0 mm | - | 47 W/m² | - |
| 1778068183 | 17.78° C | 71% | 1007.6 hPa | 0 mm | - | 38 W/m² | - |
| 1778067881 | 17.78° C | 71% | 1007.8 hPa | 0 mm | - | 27 W/m² | - |
| 1778067579 | 17.78° C | 70% | 1007.9 hPa | 0 mm | - | 28 W/m² | - |
| 1778067276 | 17.78° C | 69% | 1007.9 hPa | 0 mm | - | 35 W/m² | - |
| 1778066973 | 17.78° C | 69% | 1007.7 hPa | 0 mm | - | 41 W/m² | - |
| 1778066671 | 17.78° C | 69% | 1007.6 hPa | 0 mm | - | 43 W/m² | - |
| 1778066367 | 17.78° C | 69% | 1007.6 hPa | 0 mm | - | 22 W/m² | - |
| 1778066066 | 17.78° C | 68% | 1007.3 hPa | 0 mm | - | 29 W/m² | - |
| 1778065762 | 17.78° C | 69% | 1007.2 hPa | 0 mm | - | 25 W/m² | - |
| 1778065460 | 17.78° C | 68% | 1007.4 hPa | 0 mm | - | 20 W/m² | - |
| 1778065156 | 17.78° C | 68% | 1007.6 hPa | 0 mm | - | 13 W/m² | - |
| 1778064853 | 17.78° C | 68% | 1007.3 hPa | 0 mm | - | 11 W/m² | - |
| 1778064550 | 17.78° C | 68% | 1007.1 hPa | 0 mm | - | 15 W/m² | - |
| 1778064248 | 17.78° C | 67% | 1007.1 hPa | 0 mm | - | 10 W/m² | - |
| 1778063946 | 18.33° C | 66% | 1007.4 hPa | 0 mm | - | 10 W/m² | - |
* Rain latest hour (hover to see other rain measurements)
** Current wind speed in m/s (hover to see current wind gust speed)